Regional Weather Roundup
Issued by NWS Mt. Holly, NJ

Home | Current Version | Previous Version | Text Only | Print | Product List | Glossary On
Versions: 1 2 3 4 5 6 7 8 9 10 11 12 13 14 15 16 17 18 19 20 21 22 23 24 25 26 27 28 29 30 31 32 33 34 35 36 37 38 39 40 41 42 43 44 45 46 47 48 49 50
205
ASUS41 KPHI 271012
RWRPHI

REGIONAL WEATHER ROUNDUP
NATIONAL WEATHER SERVICE MOUNT HOLLY NJ
600 AM EDT SAT MAY 27 2017

NOTE:  "FAIR" INDICATES FEW OR NO CLOUDS BELOW 12,000 FEET WITH NO
SIGNIFICANT WEATHER AND/OR OBSTRUCTIONS TO VISIBILITY.

 * = STATION DOES NOT REPORT PRECIPITATION (E.G. RAIN, SNOW, ETC.)
        OR FOG.

NJZ015>026-271100-
SOUTHERN NEW JERSEY

CITY           SKY/WX    TMP DP  RH WIND       PRES   REMARKS
POMONA         NOT AVBL
WILDWOOD*      PTCLDY    64  55  72 NW9       29.91R
MILLVILLE      CLEAR     55  55 100 W3        29.90R
WRIGHTSTOWN    CLEAR     56  53  89 W3        29.86R
MOUNT HOLLY    CLEAR     57  52  83 CALM      29.89R
TRENTON        CLEAR     58  53  84 NW6       29.87R

$$
NJZ001>014-271100-
NORTHERN NEW JERSEY

CITY           SKY/WX    TMP DP  RH WIND       PRES   REMARKS
SUSSEX         CLOUDY    53  53 100 CALM      29.88R
ANDOVER*         N/A     52  51  97 CALM      29.88R
MORRISTOWN     CLEAR     52  52 100 CALM      29.87R
NEWARK         PTCLDY    59  54  83 SW5       29.86R
TETERBORO      MOCLDY    58  54  86 CALM      29.85R
CALDWELL       PTCLDY    56  53  90 CALM      29.88R
SOMERVILLE     CLEAR     53  52  96 CALM      29.85R
ALLAIRE*       CLEAR     57  55  93 W5        29.89R
TOMS RIVER*    CLEAR     55  53  93 W6        29.89R

$$
PAZ043-044-047-054-055-060>062-066>071-271100-
EASTERN PENNSYLVANIA

CITY           SKY/WX    TMP DP  RH WIND       PRES   REMARKS
PHILADELPHIA   PTCLDY    61  51  70 W12       29.91R
NORTH PHILA    CLEAR     59  52  77 W9        29.90R
BLUE BELL*     CLEAR     50  50 100 CALM      29.92R
DOYLESTOWN     CLEAR     56  52  86 W3        29.88R
QUAKERTOWN*    CLEAR     50  50 100 CALM      29.90S
PERKASIE*      FAIR      52  52 100 CALM      29.90S
POTTSTOWN      PTCLDY    54  50  86 CALM      29.92R
LANCASTER      CLEAR     55  53  93 NW5       29.90F
COATESVILLE    CLEAR     54  50  87 W6        29.92S
READING        CLEAR     52  52 100 CALM      29.90R
ALLENTOWN      CLEAR     52  49  89 SW6       29.89R
MOUNT POCONO   CLOUDY    53  52  96 NW7       29.89S
HAZLETON       CLOUDY    54  52  94 CALM      29.93R
LEHIGHTON      FAIR      46  46 100 CALM      29.91R
WILKES BARRE   CLOUDY    57  53  86 SW3       29.89R

$$
DEZALL-MDZ008-012-015-019-020-271100-
DELAWARE AND EASTERN MARYLAND

CITY           SKY/WX    TMP DP  RH WIND       PRES   REMARKS
WILMINGTON     CLEAR     54  52  93 W3        29.91R
DOVER          PTCLDY    60  58  92 NW3       29.89S
GEORGETOWN     MOCLDY    63  54  72 CALM      29.92R
EASTON         MOCLDY    63  57  82 CALM      29.94F
ABERDEEN       CLEAR     54  53  97 CALM      29.91F
PATUXENT       PTCLDY    59  58  96 CALM      29.91F
OCEAN CITY     CLOUDY    61  54  77 W3        29.93R
WALLOPS ISLAND CLEAR     58  57  97 W3        29.94R
CAMBRIDGE      CLOUDY    61  59  94 CALM      29.92S
SALISBURY      CLOUDY    58  57  97 CALM      29.92R

$$
PAZ001-021-NYZ056-072-MDZ011-DCZ001-271100-
OTHER NEARBY LOCATIONS

CITY           SKY/WX    TMP DP  RH WIND       PRES   REMARKS
HARRISBURG     PTCLDY    54  51  90 NE3       29.89F
STATE COLLEGE  CLEAR     50  48  93 CALM      29.90F
WILLIAMSPORT   CLEAR     51  49  92 CALM      29.90R
BINGHAMTON     CLOUDY    53  53 100 NW7       29.88R
NEW YORK CITY  CLOUDY    61  54  77 W5        29.89R
BALTIMORE      PTCLDY    56  55  97 CALM      29.90F
WASHINGTON DC  MOCLDY    62  60  93 SE5       29.91F

$$




USA.gov is the U.S. government's official web portal to all federal, state and local government web resources and services.